Date String (YYYY-MM-DD hh:mm:ss) UTC,Instrument flags,absolute air pressure of the measurement (hPa),sample flow rate (lpm),inlet stack bypass flow (lpm),air temperature of the measurement (°C),ambient temperature measured by the external sensor (°C),aerosol sample conditioner tube jacket temperature (°C),OPC LED temperature (°C),internal box temperature (°C),relative humidity of the measurement (%),span deviation,mass concentration of particles derived from Lorenz-Mie calculation of OPC scattering (μg/m³),mass concentration of particles derived from Lorenz-Mie calculation of OPC scattering (μg/m³),mass concentration of particles derived from Lorenz-Mie calculation of OPC scattering (μg/m³)
DateTimeUTC,F1_M11,P_M11,Q1_M11,Q2_M11,T1_M11,T2_M11,T3_M11,T4_M11,T5_M11,U1_M11,ZSPAN_M11,X0_M11,X2_M11,X1_M11
2024-06-09 22:00:00,SystemResetWarning,0832.1,5.00,000.00,029.0,027.8,000.0,037.5,030.8,039.8,-000.8,0022.87,0015.92,0014.86
2024-06-09 22:01:00,SystemResetWarning,0832.2,5.00,000.00,029.1,028.1,000.0,037.5,030.9,039.5,-000.8,0022.49,0015.79,0014.83
2024-06-09 22:02:00,SystemResetWarning,0832.2,4.99,000.00,029.2,028.4,000.0,037.5,031.0,039.2,-000.8,0022.48,0015.78,0014.84
2024-06-09 22:03:00,SystemResetWarning,0832.2,5.00,000.00,029.3,028.6,000.0,037.5,031.2,039.0,-000.9,0022.62,0015.81,0014.83
2024-06-09 22:04:00,SystemResetWarning,0832.2,5.00,000.00,029.3,028.8,000.0,037.6,031.3,039.0,-000.9,0022.50,0015.79,0014.84
2024-06-09 22:05:00,SystemResetWarning,0832.2,5.00,000.00,029.4,029.0,000.0,037.6,031.4,038.8,-001.0,0022.43,0015.81,0014.85
2024-06-09 22:06:00,SystemResetWarning,0832.2,5.00,000.00,029.5,029.2,000.0,037.6,031.4,038.4,-001.2,0021.39,0015.88,0014.91
2024-06-09 22:07:00,SystemResetWarning,0832.2,4.99,000.00,029.6,029.3,000.0,037.7,031.5,038.4,-000.9,0021.70,0015.90,0014.91
2024-06-09 22:08:00,SystemResetWarning,0832.2,4.99,000.00,029.7,029.3,000.0,037.7,031.6,038.0,-000.6,0021.60,0015.88,0014.89
2024-06-09 22:09:00,SystemResetWarning,0832.1,5.00,000.00,029.5,027.5,000.0,037.8,030.7,038.5,-000.3,0021.82,0015.87,0014.88
2024-06-09 22:10:00,SystemResetWarning,0832.0,5.00,000.00,029.1,025.7,000.0,037.8,029.8,039.3,-000.2,0021.44,0015.76,0014.83
2024-06-09 22:11:00,SystemResetWarning,0832.0,5.00,000.00,028.9,025.7,000.0,037.8,029.7,040.2,-000.1,0021.24,0015.70,0014.79
2024-06-09 22:12:00,SystemResetWarning,0832.0,5.01,000.00,028.8,026.1,000.0,037.6,029.9,040.2,-000.1,0021.30,0015.70,0014.76
2024-06-09 22:13:00,SystemResetWarning,0832.0,4.99,000.00,028.8,026.6,000.0,037.6,030.2,040.1,-000.1,0021.03,0015.68,0014.74
2024-06-09 22:14:00,SystemResetWarning,0832.0,5.00,000.00,028.8,027.0,000.0,037.5,030.4,040.2,-000.1,0021.20,0015.65,0014.72
2024-06-09 22:15:00,SystemResetWarning,0832.0,5.01,000.00,028.9,027.5,000.0,037.5,030.6,039.9,-000.3,0022.04,0015.59,0014.66
2024-06-09 22:16:00,SystemResetWarning,0832.0,5.00,000.00,029.0,027.9,000.0,037.4,030.8,039.9,-000.5,0022.96,0015.60,0014.67
2024-06-09 22:17:00,SystemResetWarning,0832.0,5.00,000.00,029.1,028.2,000.0,037.4,030.9,039.5,-000.3,0022.93,0015.56,0014.64
2024-06-09 22:18:00,SystemResetWarning,0832.0,5.00,000.00,029.1,028.5,000.0,037.4,031.0,039.2,-000.5,0023.46,0015.53,0014.61
2024-06-09 22:19:00,SystemResetWarning,0832.0,5.00,000.00,029.2,028.7,000.0,037.5,031.1,039.1,-000.9,0023.30,0015.54,0014.63
2024-06-09 22:20:00,SystemResetWarning,0832.0,5.00,000.00,029.3,028.9,000.0,037.5,031.3,039.0,-000.9,0023.12,0015.58,0014.65
2024-06-09 22:21:00,SystemResetWarning,0832.0,4.99,000.00,029.4,029.0,000.0,037.6,031.3,038.9,-000.8,0023.32,0015.64,0014.67
2024-06-09 22:22:00,SystemResetWarning,0832.0,5.00,000.00,029.5,029.2,000.0,037.6,031.4,038.8,-000.8,0023.30,0015.65,0014.67
2024-06-09 22:23:00,SystemResetWarning,0832.0,5.00,000.00,029.6,029.3,000.0,037.6,031.5,038.5,-000.7,0022.86,0015.62,0014.65
2024-06-09 22:24:00,SystemResetWarning,0832.0,5.00,000.00,029.7,029.4,000.0,037.7,031.6,038.3,-000.9,0022.84,0015.58,0014.61
2024-06-09 22:25:00,SystemResetWarning,0832.0,4.99,000.00,029.7,028.7,000.0,037.8,031.2,038.1,-000.9,0022.89,0015.52,0014.57
2024-06-09 22:26:00,SystemResetWarning,0831.9,5.00,000.00,029.4,026.9,000.0,037.8,030.4,038.8,-000.9,0022.15,0015.54,0014.60
2024-06-09 22:27:00,SystemResetWarning,0831.9,5.00,000.00,029.1,026.6,000.0,037.8,030.2,039.3,-000.8,0021.18,0015.54,0014.57
2024-06-09 22:28:00,SystemResetWarning,0832.0,5.02,000.00,029.1,026.9,000.0,037.7,030.3,039.5,-000.8,0020.86,0015.54,0014.61
2024-06-09 22:29:00,SystemResetWarning,0832.0,5.00,000.00,029.1,027.3,000.0,037.6,030.5,039.8,-000.8,0019.78,0015.54,0014.62
2024-06-09 22:30:00,SystemResetWarning,0832.0,5.00,000.00,029.1,027.7,000.0,037.6,030.8,039.6,-000.9,0019.84,0015.45,0014.54
2024-06-09 22:31:00,SystemResetWarning,0832.0,5.00,000.00,029.2,028.0,000.0,037.6,030.9,039.2,-001.1,0019.71,0015.36,0014.49
2024-06-09 22:32:00,SystemResetWarning,0832.1,5.01,000.00,029.3,028.3,000.0,037.6,031.1,039.1,-001.2,0019.39,0015.40,0014.50
2024-06-09 22:33:00,SystemResetWarning,0832.1,5.00,000.00,029.4,028.6,000.0,037.6,031.2,039.3,-001.5,0019.47,0015.38,0014.49
2024-06-09 22:34:00,SystemResetWarning,0832.1,5.00,000.00,029.4,028.8,000.0,037.6,031.3,039.1,-001.8,0019.45,0015.29,0014.44
2024-06-09 22:35:00,SystemResetWarning,0832.1,4.99,000.00,029.5,029.0,000.0,037.7,031.4,038.8,-001.8,0020.01,0015.23,0014.34
2024-06-09 22:36:00,SystemResetWarning,0832.1,5.00,000.00,029.6,029.2,000.0,037.7,031.5,038.6,-002.1,0019.51,0015.09,0014.24
2024-06-09 22:37:00,SystemResetWarning,0832.1,5.01,000.00,029.7,029.3,000.0,037.8,031.6,038.3,-002.2,0019.38,0014.97,0014.11
2024-06-09 22:38:00,SystemResetWarning,0832.0,4.98,000.00,029.6,028.2,000.0,037.8,031.1,038.3,-002.3,0019.58,0014.89,0014.05
2024-06-09 22:39:00,SystemResetWarning,0831.9,5.01,000.00,029.3,026.1,000.0,037.9,030.1,039.4,-002.3,0019.49,0014.81,0013.99
2024-06-09 22:40:00,SystemResetWarning,0832.2,5.00,000.00,028.9,025.6,000.0,037.8,029.7,040.3,-002.1,0020.25,0014.77,0013.88
2024-06-09 22:41:00,SystemResetWarning,0831.8,5.01,000.00,028.8,025.9,000.0,037.7,029.8,040.3,-001.9,0020.29,0014.76,0013.86
2024-06-09 22:42:00,SystemResetWarning,0831.7,5.00,000.00,028.8,026.4,000.0,037.6,030.1,040.4,-001.7,0020.32,0014.77,0013.85
2024-06-09 22:43:00,SystemResetWarning,0831.7,5.00,000.00,028.8,026.9,000.0,037.5,030.3,040.2,-001.5,0020.13,0014.65,0013.78
2024-06-09 22:44:00,SystemResetWarning,0831.7,5.00,000.00,028.9,027.3,000.0,037.5,030.5,040.1,-001.1,0019.74,0014.57,0013.72
2024-06-09 22:45:00,SystemResetWarning,0831.7,4.99,000.00,029.0,027.7,000.0,037.5,030.7,039.8,-001.0,0019.93,0014.62,0013.74
2024-06-09 22:46:00,SystemResetWarning,0831.6,5.00,000.00,029.0,028.0,000.0,037.5,030.9,039.7,-001.3,0019.88,0014.70,0013.83
2024-06-09 22:47:00,SystemResetWarning,0831.6,5.00,000.00,029.1,028.3,000.0,037.5,031.0,039.6,-001.1,0020.69,0014.86,0013.91
2024-06-09 22:48:00,SystemResetWarning,0831.6,5.00,000.00,029.2,028.6,000.0,037.5,031.1,039.5,-000.8,0021.96,0014.93,0013.95
2024-06-09 22:49:00,SystemResetWarning,0831.6,5.01,000.00,029.3,028.7,000.0,037.5,031.2,039.2,-000.7,0021.84,0014.94,0013.97
2024-06-09 22:50:00,SystemResetWarning,0831.6,5.01,000.00,029.4,028.9,000.0,037.5,031.3,039.0,-000.5,0021.91,0014.94,0013.94
2024-06-09 22:51:00,SystemResetWarning,0831.7,4.99,000.00,029.4,029.1,000.0,037.6,031.4,038.7,-000.3,0021.69,0014.87,0013.92
2024-06-09 22:52:00,SystemResetWarning,0831.6,5.00,000.00,029.5,029.2,000.0,037.6,031.5,038.8,-000.4,0021.84,0014.80,0013.92
2024-06-09 22:53:00,SystemResetWarning,0831.6,5.00,000.00,029.6,029.3,000.0,037.7,031.5,038.7,-000.6,0021.77,0014.70,0013.85
2024-06-09 22:54:00,SystemResetWarning,0831.5,4.99,000.00,029.7,029.1,000.0,037.7,031.5,038.5,-000.9,0021.92,0014.62,0013.78
2024-06-09 22:55:00,SystemResetWarning,0831.4,4.99,000.00,029.4,027.1,000.0,037.8,030.5,038.9,-000.9,0022.35,0014.60,0013.75
2024-06-09 22:56:00,SystemResetWarning,0831.3,5.00,000.00,029.0,025.6,000.0,037.8,029.7,039.9,-000.9,0022.11,0014.48,0013.68
2024-06-09 22:57:00,SystemResetWarning,0831.2,5.01,000.00,028.8,025.6,000.0,037.7,029.6,040.3,-000.6,0021.99,0014.38,0013.58
2024-06-09 22:58:00,SystemResetWarning,0831.2,5.01,000.00,028.7,026.0,000.0,037.6,029.8,040.4,-000.3,0021.43,0014.28,0013.53
2024-06-09 22:59:00,SystemResetWarning,0831.2,4.99,000.00,028.7,026.5,000.0,037.5,030.1,040.4,-000.2,0020.45,0014.25,0013.50
